Chanute, KS

5:56 AM CST on November 22, 2017 (GMT -0600)
Chanute Martin Johnson

Weather History for KCNU - April, 2014

Change the Weather History Date:

Thursday, April 10, 2014

  Actual Average Record
Temperature  
Mean Temperature 65 °F 55 °F  
Max Temperature 78 °F 66 °F 92 °F (1930)
Min Temperature 52 °F 44 °F 26 °F (1989)
Degree Days  
Heating Degree Days 0 11  
Month to date heating degree days 118 119  
Since 1 July heating degree days 4824 4250  
Cooling Degree Days 0 1  
Month to date cooling degree days 0 6  
Year to date cooling degree days 0 10  
Growing Degree Days 17 (Base 50)    
Moisture  
Dew Point 42 °F    
Average Humidity 44    
Maximum Humidity 57    
Minimum Humidity 31    
Precipitation  
Precipitation 0.00 in 0.13 in 3.57 in (1944)
Month to date precipitation 0.02 1.27  
Year to date precipitation 1.96 7.47  
Sea Level Pressure  
Sea Level Pressure 29.83 in    
Wind  
Wind Speed 13 mph (SW)    
Max Wind Speed 24 mph    
Max Gust Speed 31 mph    
Visibility 10 miles    
Events      
T = Trace of Precipitation, MM = Missing Value Source: NWS Daily Summary

Daily Weather History Graph

Daily Weather History Graph

Search for Another Location

Airport or City:

Trip Planner

Search our weather history database for the weather conditions in past years. The results will help you decide how hot, cold, wet, or windy it might be!

Date:

Astronomy

Apr. 10, 2014 Rise Set
Actual Time 6:54 AM CDT 7:53 PM CDT
Civil Twilight 6:27 AM CDT 8:19 PM CDT
Nautical Twilight 5:55 AM CDT 8:51 PM CDT
Astronomical Twilight 5:22 AM CDT 9:24 PM CDT
Moon 3:42 PM CDT (4/10) 4:12 AM CDT (4/10)
Length of Visible Light 13h 52m
Length of Day
12h 59m
Waxing Gibbous, 80% of the Moon is Illuminated
Apr 10
Waxing Gibbous
Apr 15
Full
Apr 22
Last Quarter
Apr 29
New
May 6
First Quarter

Hourly Weather History & Observations

Time (CDT) Temp. Dew Point Humidity Pressure Visibility Wind Dir Wind Speed Gust Speed Precip Events Conditions
12:52 AM 64.0 °F 42.1 °F 45% 29.82 in 10.0 mi South 17.3 mph - N/A   Clear
1:52 AM 63.0 °F 43.0 °F 48% 29.80 in 10.0 mi South 20.7 mph - N/A   Clear
2:52 AM 61.0 °F 43.0 °F 52% 29.78 in 10.0 mi South 19.6 mph - N/A   Clear
3:52 AM 60.1 °F 43.0 °F 53% 29.76 in 10.0 mi South 19.6 mph 27.6 mph N/A   Clear
4:52 AM 59.0 °F 43.0 °F 55% 29.74 in 10.0 mi South 19.6 mph - N/A   Clear
5:52 AM 57.9 °F 43.0 °F 58% 29.74 in 10.0 mi South 13.8 mph - N/A   Clear
6:52 AM 57.9 °F 43.0 °F 58% 29.74 in 10.0 mi South 12.7 mph - N/A   Clear
7:52 AM 60.1 °F 44.1 °F 55% 29.75 in 10.0 mi South 12.7 mph - N/A   Clear
8:52 AM 64.4 °F 44.6 °F 49% 29.82 in 10.0 mi SW 11.5 mph - N/A   Clear
9:52 AM 68.0 °F 45.0 °F 43% 29.79 in 10.0 mi SSW 18.4 mph - N/A   Clear
10:52 AM 71.1 °F 45.0 °F 39% 29.79 in 10.0 mi SW 9.2 mph - N/A   Clear
11:52 AM 73.9 °F 44.1 °F 34% 29.80 in 10.0 mi SW 10.4 mph - N/A   Clear
12:52 PM 75.9 °F 42.1 °F 30% 29.80 in 8.0 mi WNW 6.9 mph - N/A   Clear
1:52 PM 77.0 °F 45.0 °F 32% 29.81 in 10.0 mi NNW 13.8 mph - N/A   Clear
2:52 PM 77.0 °F 44.1 °F 31% 29.83 in 10.0 mi NW 18.4 mph 23.0 mph N/A   Clear
3:52 PM 75.9 °F 42.1 °F 30% 29.83 in 10.0 mi North 13.8 mph 23.0 mph N/A   Clear
4:52 PM 75.9 °F 44.1 °F 32% 29.83 in 10.0 mi North 9.2 mph - N/A   Clear
5:52 PM 73.9 °F 43.0 °F 33% 29.84 in 10.0 mi North 12.7 mph - N/A   Clear
6:52 PM 69.1 °F 43.0 °F 39% 29.86 in 10.0 mi North 11.5 mph - N/A   Clear
7:52 PM 64.9 °F 39.0 °F 39% 29.90 in 10.0 mi North 12.7 mph 21.9 mph N/A   Clear
8:52 PM 61.0 °F 37.0 °F 41% 29.94 in 10.0 mi North 13.8 mph - N/A   Clear
9:52 PM 59.0 °F 37.0 °F 44% 29.96 in 10.0 mi NE 11.5 mph - N/A   Clear
10:52 PM 57.0 °F 36.0 °F 45% 29.95 in 10.0 mi ENE 10.4 mph - N/A   Clear
11:52 PM 55.0 °F 36.0 °F 49% 29.96 in 10.0 mi ENE 6.9 mph - N/A   Clear